This is the latest recevied weather packets stored in our database for station/object G8SIB-9. If no packets are shown the sender has not sent any weather packets the latest 10 day(s).
| Time | Temp. | Humidity | Pressure | Rain* | Wind** | Luminosity | Snow |
|---|---|---|---|---|---|---|---|
| 1778010988 | 11.67° C | 73% | 1009.9 hPa | 0 mm | - | - | - |
| 1778010388 | 11.67° C | 74% | 1009.8 hPa | 0 mm | - | - | - |
| 1778009787 | 11.67° C | 75% | 1009.7 hPa | 0 mm | - | - | - |
| 1778009187 | 12.22° C | 77% | 1009.5 hPa | 0 mm | - | - | - |
| 1778008586 | 12.22° C | 78% | 1009.5 hPa | 0 mm | - | - | - |
| 1778007986 | 12.22° C | 79% | 1009.4 hPa | 0 mm | - | - | - |
| 1778007385 | 11.67° C | 79% | 1009.3 hPa | 0 mm | - | - | - |
| 1778006784 | 12.22° C | 77% | 1009.3 hPa | 0 mm | - | - | - |
| 1778006184 | 12.22° C | 74% | 1009.2 hPa | 0.25 mm | - | - | - |
| 1778005583 | 12.22° C | 73% | 1009.2 hPa | 0.25 mm | - | - | - |
| 1778004982 | 12.22° C | 75% | 1009.3 hPa | 0 mm | - | - | - |
| 1778004381 | 12.78° C | 74% | 1009.2 hPa | 0 mm | - | - | - |
| 1778003781 | 13.33° C | 68% | 1009.1 hPa | 0 mm | - | - | - |
| 1778003179 | 13.89° C | 57% | 1008.9 hPa | 0 mm | - | - | - |
| 1778002579 | 14.44° C | 56% | 1008.9 hPa | 0 mm | - | - | - |
| 1778001978 | 14.44° C | 54% | 1008.8 hPa | 0 mm | - | - | - |
| 1778001377 | 14.44° C | 54% | 1008.8 hPa | 0 mm | - | - | - |
| 1778000776 | 15° C | 53% | 1008.9 hPa | 0 mm | - | - | - |
| 1778000174 | 15° C | 52% | 1008.9 hPa | 0 mm | - | - | - |
| 1777999574 | 15° C | 52% | 1008.8 hPa | 0 mm | - | - | - |
| 1777998974 | 15° C | 52% | 1008.8 hPa | 0 mm | - | - | - |
| 1777998372 | 15° C | 53% | 1008.8 hPa | 0 mm | - | - | - |
| 1777997771 | 15° C | 52% | 1008.8 hPa | 0 mm | - | - | - |
| 1777997170 | 15° C | 53% | 1008.8 hPa | 0 mm | - | - | - |
| 1777996569 | 15° C | 51% | 1008.7 hPa | 0 mm | - | - | - |
* Rain latest hour (hover to see other rain measurements)
** Current wind speed in m/s (hover to see current wind gust speed)